Regional Weather Roundup
Issued by NWS

Home | Current Version | Previous Version | Text Only | Print | Product List | Glossary On
Versions: 1 2 3 4 5 6 7 8 9 10 11 12 13 14 15 16 17 18 19 20 21 22 23 24 25 26 27 28 29 30 31 32 33 34 35 36 37 38 39 40 41 42 43 44 45 46 47 48 49 50
000
ASUS44 KEWX 050111
RWRTX
SOUTH TEXAS REGIONAL WEATHER ROUNDUP
NATIONAL WEATHER SERVICE AUSTIN/SAN ANTONIO TX
800 PM CDT FRI SEP 04 2015

NOTE: "FAIR" INDICATED FEW OR NO CLOUDS BELOW 12,000 FEET WITH NO
SIGNIFICANT WEATHER AND/OR OBSTRUCTIONS TO VISIBILITY.

* - THESE STATIONS ARE NOT NWS OR FAA STATIONS...AND ARE NOT SUBJECT
    TO NWS AND FAA QUALITY CONTROL.

TXZ171-172-183>190-050200-
TEXAS HILL COUNTRY AND EDWARDS PLATEAU

CITY           SKY/WX    TMP DP  RH WIND       PRES   REMARKS
JUNCTION       CLEAR     90  62  39 SE10      29.90R HX  90
*LLANO         CLEAR     91  64  40 SE9       29.91S HX  93
BURNET         CLEAR     89  67  47 SE9       29.93R HX  92
*HORSESHOE BAY MOCLDY    91  64  40 SE6       29.90R HX  92
*KERRVILLE     CLEAR     86  63  46 SE5       29.92S
*FREDERICKSBRG CLEAR     87  60  40 SE3       29.92S
*ROCKSPRINGS   CLEAR     86  63  45 SE8       29.96S
*BOERNE STAGE  CLEAR     82  68  61 SE8G18    29.94R
*CASTROVILLE   CLEAR     88  66  48 SE9       29.90R HX  90
HONDO          PTCLDY    89  70  53 SE20      29.89R HX  94
*UVALDE        CLEAR     91  67  45 SE16G25   29.86R HX  93
DEL RIO        CLEAR     95  62  33 SE10      29.81S HX  96
LAUGHLIN AFB   CLEAR     94  63  36 SE13      29.82S HX  95
CARRIZO SPRGS  PTCLDY    93  66  40 SE14      29.81R HX  96
*EAGLE PASS    CLEAR     93  63  36 E8        29.82S HX  94
$$

TXZ173-191>194-202-209-217>225-228-050200-
CENTRAL AND SOUTH CENTRAL TEXAS

CITY           SKY/WX    TMP DP  RH WIND       PRES   REMARKS
GEORGETOWN     PTCLDY    88  70  55 SE8       29.92R HX  92
AUSTIN/BERGSTM MOCLDY    88  68  51 SE12      29.89R HX  91
AUSTIN/MABRY   PTCLDY    89  70  53 VRB7G16   29.91R HX  94
*AUSTIN/EXEC   MOCLDY    86  72  62 SE8       29.91S HX  92
*LAGO VISTA    CLEAR     87  69  54 SE7G16    29.93R HX  91
SAN MARCOS     PTCLDY    88  72  58 S13       29.91R HX  94
NEW BRAUNFELS  CLEAR     86  71  60 S14       29.89R HX  91
RANDOLPH AFB   CLOUDY    84  72  65 SE12      29.90R HX  90
PT SAN ANTONIO PTCLDY    88  70  55 SE14      29.88R HX  92
SAN ANTONIO    PTCLDY    87  69  54 SE15      29.90R HX  91
STINSON FIELD  PTCLDY    87  69  54 SE13      29.87R HX  91
*PLEASANTON    CLEAR     86  71  60 SE10      29.88R HX  92
*LA GRANGE     PTCLDY    84  74  70 SE7       29.89F HX  91
*GIDDINGS      MOCLDY    83  72  68 S7        29.95S
*GONZALES      PTCLDY    84  76  75 SE8       29.90S HX  93
$$

TXZ163>164-176>182-195>201-210>213-226-227-235-050200-
SOUTHEAST TEXAS

CITY           SKY/WX    TMP DP  RH WIND       PRES   REMARKS
COLLEGE STN    CLOUDY    85  74  69 SE8       29.92R HX  92
*BRYAN         CLOUDY    84  73  71 SE6       29.93R HX  90
*CALDWELL      PTCLDY    82  73  74 SE8       29.94S
*CROCKETT      PTCLDY    84  73  70 S6        29.95R HX  91
*BRENHAM       PTCLDY    84  74  71 SE8       29.92S HX  92
HUNTSVILLE     PTCLDY    83  74  74 S6        29.93S
CONROE         MOCLDY    81  74  79 SE3       29.93S
HOUSTON BUSH   MOCLDY    82  75  79 S3        29.92F
HOUSTON HOBBY  PTCLDY    83  75  77 S7        29.93R HX  90
*HOUSTON SW AP PTCLDY    81  76  82 CALM      29.94R
PEARLAND       PTCLDY    84  75  74 SE6       29.94S HX  92
HOUSTON HOOKS  CLOUDY    83  74  74 SE3       29.93S
ELLINGTON FLD  MOCLDY    84  72  65 S5        29.95R
SUGAR LAND     PTCLDY    82  76  81 S7        29.92S
*HOUSTON EXEC  PTCLDY    81  75  83 S3        29.94S
*CLEVELAND MUN PTCLDY    80  77  92 CALM      29.94S
*WHARTON       PTCLDY    82  76  82 SE7       29.93S
*COLUMBUS      NOT AVBL
*EAGLE LAKE    PTCLDY    82  77  85 S5        29.92R
$$

TXZ214>216-236>238-050200-
THE UPPER TEXAS COAST

CITY           SKY/WX    TMP DP  RH WIND       PRES   REMARKS
*ORANGE        MOCLDY    82  72  71 CALM      29.96S
PORT ARTHUR    MOCLDY    81  77  88 S5        29.93S
GALVESTON      PTCLDY    84  77  79 S9        29.95R HX  94
ANGLETON       MOCLDY    83  77  82 S7        29.93S HX  92
*BAY CITY      PTCLDY    82  79  89 SE3       29.92F HX  92
PALACIOS       PTCLDY    83  76  79 SE12      29.92R HX  91
$$

TXZ229>234-239>247-050200-
TEXAS COASTAL BEND AND RIO GRANDE PLAINS

CITY           SKY/WX    TMP DP  RH WIND       PRES   REMARKS
VICTORIA       PTCLDY    84  77  79 SE13      29.91S HX  94
*BEEVILLE      PTCLDY    83  77  81 SE9G16    29.89R HX  93
ROCKPORT       PTCLDY    84  77  79 SE12      29.89S HX  94
*PORT ARANSAS  PTCLDY    83  78  85 SE10      29.90R HX  94
*PORT LAVACA   NOT AVBL
*INGLESIDE     PTCLDY    84  77  80 SE12G17   29.89S HX  94
CORPUS CHRISTI MOCLDY    84  76  76 SE18      29.88S HX  93
CORPUS NAS     CLEAR     83  77  82 SE13      29.89R HX  92
*ROBSTOWN      PTCLDY    84  78  82 SE12      29.88S HX  95
ALICE          MOCLDY    84  77  79 SE16      29.87R HX  94
KINGSVILLE NAS PTCLDY    83  81  94 SE10      29.87S HX  97
COTULLA        PTCLDY    90  71  53 E15       29.84R HX  96
*FAITH RANCH     N/A     95  63  34 SE7       29.82R HX  96
LAREDO         PTCLDY    94  69  43 E20       29.83R HX  99
$$

TXZ248>255-050200-
DEEP SOUTH TEXAS

CITY           SKY/WX    TMP DP  RH WIND       PRES   REMARKS
BROWNSVILLE    CLEAR     84  76  76 SE9       29.87S HX  93
PORT ISABEL    CLEAR     86  78  77 SE10      29.87S HX  98
*SOUTH PADRE   CLEAR     84  79  84 SE9       29.88R HX  96
HARLINGEN      CLEAR     85  76  74 SE12      29.86R HX  94
*HEBBRONVILLE  NOT AVBL
MCALLEN        PTCLDY    89  73  59 SE15      29.85R HX  97
*WESLACO       CLEAR     86  73  63 SE8G17    29.86R HX  93
FALFURRIAS     MOCLDY    86  75  70 E13G18    29.86R HX  95
EDINBURG       CLEAR     88  72  57 SE10      29.85R HX  95
*ZAPATA        CLEAR     93  68  44 SE15G21   29.81R HX  96
$$

TXZ213>215-236>238-242>244-246-247-251-254-255-050200-
CMAN STATIONS

STATION/POSITION TIME  TEMP    WIND        PRES    WAVE
                       AIR SEA DIR/SP/G            HT/PER
                 (UTC) (F)     (DEG/KT/KT) (MB)    (FT/S)
SABINE PASS      0000   84 85  200/  7/  9 1014.2
SEA RIM ST PARK  0100   84     190/  8/ 10 1014.4
NORTH JETTY/GLS  0000   85 84  210/  9/ 10   N/A
EAGLE POINT      0000   85 82  180/ 11/ 13 1013.8
MORGANS POINT    0000   85 81  190/  4/  6 1013.6
MISSION/ARANSAS  0000   85                 1013.0
PORT O`CONNOR    0000          140/ 12/ 13   N/A
PORT ARANSAS     0100   84 86  120/ 15/ 16 1013.1
MALAQUITE BEACH  0000   84 87  110/ 16/ 18 1012.0
BAFFIN BAY       0000   85     130/ 15/ 19 1011.9
PORT ISABEL      0000   86 85  140/ 11/ 14 1011.6
$$

GMZ080-GMZ150>470-050200-
OFFSHORE BUOY REPORTS

STATION/POSITION TIME  TEMP    WIND        PRES    WAVE
                       AIR SEA DIR/SP/G            HT/PER
                 (UTC) (F)     (DEG/KT/KT) (MB)    (FT/S)
20 E GALVESTON   0050   85 86  170/ 10/ 10 1013.9    2/ 6
90 E PT ARANSAS  0050   85 86  160/ 10/ 12 1013.3    3/ 6
35 NE PT MANSFLD 0050   85 85  150/ 12/ 12 1012.0    3/ 5
200 E PT ISABEL  0050   86 86  130/ 10/ 12 1013.6    2/ 6
$$



USA.gov is the U.S. government's official web portal to all federal, state and local government web resources and services.